EW4092 Weather Reports


Display with metric or nautical units.
time (UTC)temp
F
wind
direction
speed
MPH
gust
MPH
rain 1hr
in
rain 24hr
in
rain mn
in
humidity
%
barometer
mb
20260506073019 63 98 0.0 1.0 0.00 0.00 0.00 50 1011.9
20260506071519 64 110 0.0 1.0 0.00 0.00 0.00 48 1011.9
20260506061511 69 114 0.0 2.0 0.00 0.00 0.00 39 1011.6
20260506044514 74 193 1.0 8.0 0.00 0.00 0.00 32 1011.2
20260506043006 74 193 2.0 5.0 0.00 0.00 0.00 33 1011.0
20260506041505 74 128 0.0 3.0 0.00 0.00 0.00 37 1010.8
20260506040003 75 132 1.0 4.0 0.00 0.00 0.00 34 1010.5
20260506034503 77 113 1.0 4.0 0.00 0.00 0.00 30 1010.3
20260506033001 77 92 0.0 1.0 0.00 0.00 0.00 28 1010.1
20260506031501 78 78 0.0 3.0 0.00 0.00 0.00 31 1010.0
20260506030001 80 307 0.0 4.0 0.00 0.00 0.00 30 1009.8
20260506024609 81 33 0.0 4.0 0.00 0.00 0.00 29 1009.6
20260506023112 82 260 1.0 5.0 0.00 0.00 0.00 28 1009.4
20260506021603 82 38 0.0 6.0 0.00 0.00 0.00 27 1009.4
20260506020059 83 323 1.0 6.0 0.00 0.00 0.00 26 1009.2
20260506014558 84 29 1.0 5.0 0.00 0.00 0.00 25 1009.2
20260506013104 85 351 0.0 7.0 0.00 0.00 0.00 25 1009.2
20260506011605 85 302 2.0 7.0 0.00 0.00 0.00 24 1009.3
20260506010056 85 25 1.0 5.0 0.00 0.00 0.00 25 1009.3
20260506004559 85 11 2.0 6.0 0.00 0.00 0.00 25 1009.3
20260506003055 86 335 2.0 7.0 0.00 0.00 0.00 26 1009.3
20260506001558 84 47 4.0 7.0 0.00 0.00 0.00 25 1009.4
20260506000100 85 25 2.0 7.0 0.00 0.00 0.00 25 1009.4
20260505234553 86 116 3.0 6.0 0.00 0.00 0.00 24 1009.6
20260505233055 86 65 3.0 6.0 0.00 0.00 0.00 25 1009.8
20260505231552 86 337 3.0 6.0 0.00 0.00 0.00 24 1009.9
20260505230113 85 72 2.0 7.0 0.00 0.00 0.00 25 1010.0
20260505224547 85 39 0.0 12.0 0.00 0.00 0.00 24 1010.2
20260505223048 85 293 1.0 5.0 0.00 0.00 0.00 25 1010.3
20260505221555 84 32 1.0 7.0 0.00 0.00 0.00 26 1010.4
20260505220053 85 263 2.0 6.0 0.00 0.00 0.00 27 1010.4
20260505214544 84 224 0.0 6.0 0.00 0.00 0.00 23 1010.5
20260505213042 84 242 2.0 6.0 0.00 0.00 0.00 22 1010.6
20260505211549 84 335 2.0 6.0 0.00 0.00 0.00 23 1010.7
20260505210040 84 281 3.0 11.0 0.00 0.00 0.00 25 1010.8
20260505204538 83 253 3.0 6.0 0.00 0.00 0.00 24 1010.8
20260505203036 83 207 2.0 7.0 0.00 0.00 0.00 25 1010.9
20260505201535 82 77 0.0 8.0 0.00 0.00 0.00 25 1010.9
20260505200040 82 314 3.0 10.0 0.00 0.00 0.00 25 1011.2
20260505194533 82 281 0.0 3.0 0.00 0.00 0.00 25 1011.3
20260505193034 81 297 0.0 8.0 0.00 0.00 0.00 27 1011.4
20260505191537 81 200 3.0 9.0 0.00 0.00 0.00 26 1011.4
20260505190028 81 128 1.0 7.0 0.00 0.00 0.00 30 1011.4
20260505184528 80 226 3.0 10.0 0.00 0.00 0.00 29 1011.4
20260505183030 79 201 2.0 8.0 0.00 0.00 0.00 30 1011.6
20260505181524 79 222 2.0 8.0 0.00 0.00 0.00 32 1011.6
20260505180020 78 193 2.0 6.0 0.00 0.00 0.00 32 1011.6
20260505174517 77 148 3.0 10.0 0.00 0.00 0.00 34 1011.7
20260505173015 76 236 6.0 9.0 0.00 0.00 0.00 36 1011.7
20260505171512 76 150 1.0 10.0 0.00 0.00 0.00 37 1011.7
20260505170009 75 295 0.0 2.0 0.00 0.00 0.00 40 1011.8
20260505164506 73 92 0.0 3.0 0.00 0.00 0.00 41 1011.7
20260505163006 70 187 0.0 4.0 0.00 0.00 0.00 46 1011.8
20260505161509 69 134 0.0 5.0 0.00 0.00 0.00 44 1011.7
20260505153057 70 191 0.0 4.0 0.00 0.00 0.00 45 1011.6
20260505151554 69 193 1.0 5.0 0.00 0.00 0.00 46 1011.5
20260505150105 68 150 2.0 5.0 0.00 0.00 0.00 48 1011.4
20260505124548 61 148 0.0 2.0 0.00 0.00 0.00 53 1010.1
20260505123037 62 146 0.0 1.0 0.00 0.00 0.00 52 1010.0
20260505121538 62 124 0.0 4.0 0.00 0.00 0.00 51 1009.9
20260505120031 63 102 0.0 3.0 0.00 0.00 0.00 51 1009.7
20260505114531 63 110 0.0 2.0 0.00 0.00 0.00 50 1009.6
20260505113028 63 121 0.0 2.0 0.00 0.00 0.00 50 1009.4
20260505111525 64 113 0.0 3.0 0.00 0.00 0.00 49 1009.5
20260505101517 65 115 0.0 2.0 0.00 0.00 0.00 48 1008.8
20260505100018 64 135 0.0 2.0 0.00 0.00 0.00 50 1008.7
20260505094515 63 114 0.0 0.0 0.00 0.00 0.00 54 1008.6
20260505093014 63 114 0.0 0.0 0.00 0.00 0.00 53 1008.5
20260505091510 64 114 0.0 0.0 0.00 0.00 0.00 51 1008.5
20260505090017 64 114 0.0 0.0 0.00 0.00 0.00 50 1008.4
20260505084504 66 114 0.0 1.0 0.00 0.00 0.00 47 1008.4
20260505083001 68 114 0.0 1.0 0.00 0.00 0.00 44 1008.4
20260505081602 69 114 0.0 4.0 0.00 0.00 0.00 43 1008.2
20260505080100 67 126 0.0 3.0 0.00 0.00 0.00 44 1008.3
20260505074559 67 106 0.0 1.0 0.00 0.00 0.00 44 1008.3